map of TEE home
TEE - Airport
Location
City:  Tbessa, Tébessa, Algeria
Name:Cheikh Larbi Tébessi
ICAO:DABS
IATA:TEE

Details
Type:Airport (Aerodrome, Airfield)
Latitude:35°25'57"N (35.432500)
Longitude:8°07'32"E (8.125556)
Elevation:2661 ft (811 m)
Variation:2.05°E (WMM2015 magnetic declination)
0.10° annual change
Runways:2
Longest:9843 × 148 ft (3000 × 45 m)

Time
Time Zone:UTC+1
Local Time:

Weather
METAR:DABS 160900Z 36002KT 9999 FEW026 FEW030CB SCT040 17/13 Q1019
TAF:DABS 160500Z 1606/1706 20015KT 9999 FEW030 BKN030
TEMPO 1606/1618 FEW026CB PROB40
TEMPO 1606/1609 5000 -TSRA
BECMG 2610/2612 24012KT
TEMPO 1610/1618 3000 SHRA SCT023CB
BECMG 1620/1622 VRB02KT

Related Locations
Nearby:
Farthest:GIS: 11838 mi / 19052 km
Gisborne, GIS, NZ

Find:

   beyond  
but within

Other Information
Maps:
NOTAMs:
Links:
Sources:

  
  • flag of Algeria
  

Sectional Chart

Flight Planning
at skyvector.com

Satellite Image

Google Maps Satellite view

 

Copyright © 2004-2018 Karl L. Swartz. All rights reserved.
The Great Circle Mapper name and logo are trademarks of the Great Circle Mapper.
All other trademarks mentioned herein belong to their respective owners.
Please see credits for attibutions and further copyright information.

  Follow gcmap on Facebook Follow gcmap on Twitter Follow gcmap on Google+ GCmap on LinkedIn

hCard Microformat

Geo Microformat